Year,Month,Day,Hour,Minute,Value (Times are PST for temperature in C)
2015,06,15,00,00,11.90
2015,06,15,00,01,11.90
2015,06,15,00,02,11.90
2015,06,15,00,03,11.90
2015,06,15,00,04,11.90
2015,06,15,00,05,11.90
2015,06,15,00,06,11.90
2015,06,15,00,07,11.90
2015,06,15,00,08,11.90
2015,06,15,00,09,11.90
2015,06,15,00,10,11.90
2015,06,15,00,11,11.90
2015,06,15,00,12,11.90
2015,06,15,00,13,11.80
2015,06,15,00,14,11.80
2015,06,15,00,15,11.80
2015,06,15,00,16,11.80
2015,06,15,00,17,11.80
2015,06,15,00,18,11.80
2015,06,15,00,19,11.70
2015,06,15,00,20,11.70
2015,06,15,00,21,11.70
2015,06,15,00,22,11.70
2015,06,15,00,23,11.70
2015,06,15,00,24,11.60
2015,06,15,00,25,11.60
2015,06,15,00,26,11.60
2015,06,15,00,27,11.60
2015,06,15,00,28,11.60
2015,06,15,00,29,11.60
2015,06,15,00,30,11.50
2015,06,15,00,31,11.50
2015,06,15,00,32,11.50
2015,06,15,00,33,11.50
2015,06,15,00,34,11.40
2015,06,15,00,35,11.40
2015,06,15,00,36,11.40
2015,06,15,00,37,11.40
2015,06,15,00,38,11.30
2015,06,15,00,39,11.30
2015,06,15,00,40,11.30
2015,06,15,00,41,11.30
2015,06,15,00,42,11.20
2015,06,15,00,43,11.20
2015,06,15,00,44,11.20
2015,06,15,00,45,11.20
2015,06,15,00,46,11.10
2015,06,15,00,47,11.10
2015,06,15,00,48,11.10
2015,06,15,00,49,11.10
2015,06,15,00,50,11.10
2015,06,15,00,51,11.10
2015,06,15,00,52,11.00
2015,06,15,00,53,11.10
2015,06,15,00,54,11.00
2015,06,15,00,55,11.00
2015,06,15,00,56,11.00
2015,06,15,00,57,11.00
2015,06,15,00,58,10.90
2015,06,15,00,59,10.90
2015,06,15,01,00,10.90
2015,06,15,01,01,10.90
2015,06,15,01,02,10.90
2015,06,15,01,03,10.90
2015,06,15,01,04,10.80
2015,06,15,01,05,10.80
2015,06,15,01,06,10.80
2015,06,15,01,07,10.80
2015,06,15,01,08,10.80
2015,06,15,01,09,10.80
2015,06,15,01,10,10.80
2015,06,15,01,11,10.80
2015,06,15,01,12,10.80
2015,06,15,01,13,10.70
2015,06,15,01,14,10.70
2015,06,15,01,15,10.70
2015,06,15,01,16,10.70
2015,06,15,01,17,10.70
2015,06,15,01,18,10.70
2015,06,15,01,19,10.70
2015,06,15,01,20,10.60
2015,06,15,01,21,10.60
2015,06,15,01,22,10.60
2015,06,15,01,23,10.60
2015,06,15,01,24,10.60
2015,06,15,01,25,10.60
2015,06,15,01,26,10.60
2015,06,15,01,27,10.50
2015,06,15,01,28,10.50
2015,06,15,01,29,10.50
2015,06,15,01,30,10.50
2015,06,15,01,31,10.50
2015,06,15,01,32,10.40
2015,06,15,01,33,10.40
2015,06,15,01,34,10.40
2015,06,15,01,35,10.40
2015,06,15,01,36,10.40
2015,06,15,01,37,10.40
2015,06,15,01,38,10.40
2015,06,15,01,39,10.40
2015,06,15,01,40,10.40
2015,06,15,01,41,10.40
2015,06,15,01,42,10.40
2015,06,15,01,43,10.30
2015,06,15,01,44,10.30
2015,06,15,01,45,10.30
2015,06,15,01,46,10.30
2015,06,15,01,47,10.30
2015,06,15,01,48,10.30
2015,06,15,01,49,10.30
2015,06,15,01,50,10.20
2015,06,15,01,51,10.20
2015,06,15,01,52,10.20
2015,06,15,01,53,10.20
2015,06,15,01,54,10.20
2015,06,15,01,55,10.20
2015,06,15,01,56,10.20
2015,06,15,01,57,10.20
2015,06,15,01,58,10.10
2015,06,15,01,59,10.10
2015,06,15,02,00,10.10
2015,06,15,02,01,10.10
2015,06,15,02,02,10.10
2015,06,15,02,03,10.10
2015,06,15,02,04,10.10
2015,06,15,02,05,10.10
2015,06,15,02,06,10.10
2015,06,15,02,07,10.10
2015,06,15,02,08,10.10
2015,06,15,02,09,10.10
2015,06,15,02,10,10.10
2015,06,15,02,11,10.10
2015,06,15,02,12,10.10
2015,06,15,02,13,10.10
2015,06,15,02,14,10.10
2015,06,15,02,15,10.10
2015,06,15,02,16,10.00
2015,06,15,02,17,10.00
2015,06,15,02,18,10.00
2015,06,15,02,19,10.00
2015,06,15,02,20,10.00
2015,06,15,02,21,10.00
2015,06,15,02,22,10.00
2015,06,15,02,23,10.00
2015,06,15,02,24,10.00
2015,06,15,02,25,9.90
2015,06,15,02,26,9.90
2015,06,15,02,27,10.00
2015,06,15,02,28,10.00
2015,06,15,02,29,10.00
2015,06,15,02,30,10.10
2015,06,15,02,31,10.10
2015,06,15,02,32,10.10
2015,06,15,02,33,10.10
2015,06,15,02,34,10.00
2015,06,15,02,35,10.00
2015,06,15,02,36,10.00
2015,06,15,02,37,10.00
2015,06,15,02,38,9.90
2015,06,15,02,39,9.90
2015,06,15,02,40,9.90
2015,06,15,02,41,9.90
2015,06,15,02,42,9.90
2015,06,15,02,43,9.90
2015,06,15,02,44,9.90
2015,06,15,02,45,9.80
2015,06,15,02,46,9.80
2015,06,15,02,47,9.80
2015,06,15,02,48,9.80
2015,06,15,02,49,9.80
2015,06,15,02,50,9.80
2015,06,15,02,51,9.80
2015,06,15,02,52,9.80
2015,06,15,02,53,9.80
2015,06,15,02,54,9.80
2015,06,15,02,55,9.80
2015,06,15,02,56,9.80
2015,06,15,02,57,9.80
2015,06,15,02,58,9.80
2015,06,15,02,59,9.80
2015,06,15,03,00,9.80
2015,06,15,03,01,9.90
2015,06,15,03,02,9.90
2015,06,15,03,03,9.90
2015,06,15,03,04,9.90
2015,06,15,03,05,10.00
2015,06,15,03,06,10.00
2015,06,15,03,07,10.00
2015,06,15,03,08,10.00
2015,06,15,03,09,10.10
2015,06,15,03,10,10.10
2015,06,15,03,11,10.10
2015,06,15,03,12,10.00
2015,06,15,03,13,10.00
2015,06,15,03,14,10.00
2015,06,15,03,15,10.00
2015,06,15,03,16,10.00
2015,06,15,03,17,10.00
2015,06,15,03,18,10.00
2015,06,15,03,19,10.00
2015,06,15,03,20,10.00
2015,06,15,03,21,10.00
2015,06,15,03,22,10.00
2015,06,15,03,23,10.00
2015,06,15,03,24,10.00
2015,06,15,03,25,10.00
2015,06,15,03,26,9.90
2015,06,15,03,27,9.90
2015,06,15,03,28,9.90
2015,06,15,03,29,9.90
2015,06,15,03,30,9.90
2015,06,15,03,31,9.90
2015,06,15,03,32,9.80
2015,06,15,03,33,9.80
2015,06,15,03,34,9.80
2015,06,15,03,35,9.80
2015,06,15,03,36,9.80
2015,06,15,03,37,9.80
2015,06,15,03,38,9.80
2015,06,15,03,39,9.80
2015,06,15,03,40,9.80
2015,06,15,03,41,9.80
2015,06,15,03,42,9.80
2015,06,15,03,43,9.80
2015,06,15,03,44,9.80
2015,06,15,03,45,9.80
2015,06,15,03,46,9.80
2015,06,15,03,47,9.80
2015,06,15,03,48,9.80
2015,06,15,03,49,9.80
2015,06,15,03,50,9.80
2015,06,15,03,51,9.80
2015,06,15,03,52,9.80
2015,06,15,03,53,9.80
2015,06,15,03,54,9.80
2015,06,15,03,55,9.80
2015,06,15,03,56,9.80
2015,06,15,03,57,9.80
2015,06,15,03,58,9.80
2015,06,15,03,59,9.80
2015,06,15,04,00,9.80
2015,06,15,04,01,9.80
2015,06,15,04,02,9.80
2015,06,15,04,03,9.80
2015,06,15,04,04,9.80
2015,06,15,04,05,9.80
2015,06,15,04,06,9.80
2015,06,15,05,02,9.40
2015,06,15,05,03,9.40
2015,06,15,05,04,9.40
2015,06,15,05,05,9.50
2015,06,15,05,06,9.50
2015,06,15,05,07,9.50
2015,06,15,05,08,9.50
2015,06,15,05,09,9.50
2015,06,15,05,10,9.40
2015,06,15,05,11,9.40
2015,06,15,05,12,9.40
2015,06,15,05,13,9.40
2015,06,15,05,14,9.40
2015,06,15,05,15,9.40
2015,06,15,05,16,9.40
2015,06,15,05,17,9.30
2015,06,15,05,18,9.40
2015,06,15,05,19,9.40
2015,06,15,05,20,9.40
2015,06,15,05,21,9.30
2015,06,15,05,22,9.30
2015,06,15,05,23,9.30
2015,06,15,05,24,9.30
2015,06,15,05,25,9.30
2015,06,15,05,26,9.30
2015,06,15,05,27,9.30
2015,06,15,05,28,9.30
2015,06,15,05,29,9.30
2015,06,15,05,30,9.30
2015,06,15,05,31,9.30
2015,06,15,05,32,9.20
2015,06,15,05,33,9.20
2015,06,15,05,34,9.20
2015,06,15,05,35,9.20
2015,06,15,05,36,9.20
2015,06,15,05,37,9.20
2015,06,15,05,38,9.20
2015,06,15,05,39,9.20
2015,06,15,05,40,9.10
2015,06,15,05,41,9.10
2015,06,15,05,42,9.10
2015,06,15,05,43,9.10
2015,06,15,05,44,9.10
2015,06,15,05,45,9.10
2015,06,15,05,46,9.00
2015,06,15,05,47,9.00
2015,06,15,05,48,9.00
2015,06,15,05,49,9.00
2015,06,15,05,50,9.00
2015,06,15,05,51,9.10
2015,06,15,05,52,9.10
2015,06,15,05,53,9.10
2015,06,15,05,54,9.10
2015,06,15,05,55,9.10
2015,06,15,05,56,9.20
2015,06,15,05,57,9.20
2015,06,15,05,58,9.20
2015,06,15,05,59,9.20
2015,06,15,06,00,9.20
2015,06,15,06,01,9.20
2015,06,15,06,02,9.20
2015,06,15,06,03,9.20
2015,06,15,06,04,9.20
2015,06,15,06,05,9.20
2015,06,15,06,06,9.20
2015,06,15,06,07,9.20
2015,06,15,06,08,9.20
2015,06,15,06,09,9.20
2015,06,15,06,10,9.20
2015,06,15,06,11,9.20
2015,06,15,06,12,9.20
2015,06,15,06,13,9.20
2015,06,15,06,14,9.20
2015,06,15,06,15,9.20
2015,06,15,06,16,9.20
2015,06,15,06,17,9.20
2015,06,15,06,18,9.20
2015,06,15,06,19,9.20
2015,06,15,06,20,9.30
2015,06,15,06,21,9.30
2015,06,15,06,22,9.30
2015,06,15,06,23,9.30
2015,06,15,06,24,9.30
2015,06,15,06,25,9.40
2015,06,15,06,26,9.40
2015,06,15,06,27,9.40
2015,06,15,06,28,9.40
2015,06,15,06,29,9.40
2015,06,15,06,30,9.40
2015,06,15,06,31,9.50
2015,06,15,06,32,9.50
2015,06,15,06,33,9.50
2015,06,15,06,34,9.50
2015,06,15,06,35,9.60
2015,06,15,06,36,9.60
2015,06,15,06,37,9.60
2015,06,15,06,38,9.60
2015,06,15,06,39,9.60
2015,06,15,06,40,9.60
2015,06,15,06,41,9.70
2015,06,15,06,42,9.70
2015,06,15,06,43,9.70
2015,06,15,06,44,9.70
2015,06,15,06,45,9.70
2015,06,15,06,46,9.70
2015,06,15,06,47,9.70
2015,06,15,06,48,9.70
2015,06,15,06,49,9.70
2015,06,15,06,50,9.70
2015,06,15,06,51,9.70
2015,06,15,06,52,9.70
2015,06,15,06,53,9.70
2015,06,15,06,54,9.70
2015,06,15,06,55,9.70
2015,06,15,06,56,9.80
2015,06,15,06,57,9.80
2015,06,15,06,58,9.80
2015,06,15,06,59,9.80
2015,06,15,07,00,9.80
2015,06,15,07,01,9.90
2015,06,15,07,02,9.90
2015,06,15,07,03,9.90
2015,06,15,07,04,9.90
2015,06,15,07,05,9.90
2015,06,15,07,06,9.90
2015,06,15,07,07,9.90
2015,06,15,07,08,10.00
2015,06,15,07,09,10.00
2015,06,15,07,10,10.00
2015,06,15,07,11,10.10
2015,06,15,07,12,10.10
2015,06,15,07,13,10.10
2015,06,15,07,14,10.20
2015,06,15,07,15,10.20
2015,06,15,07,16,10.20
2015,06,15,07,17,10.30
2015,06,15,07,18,10.40
2015,06,15,07,19,10.40
2015,06,15,07,20,10.50
2015,06,15,07,21,10.60
2015,06,15,07,22,10.70
2015,06,15,07,23,10.70
2015,06,15,07,24,10.80
2015,06,15,07,25,10.80
2015,06,15,07,26,10.90
2015,06,15,07,27,11.00
2015,06,15,07,28,11.00
2015,06,15,07,29,11.10
2015,06,15,07,30,11.20
2015,06,15,07,31,11.30
2015,06,15,07,32,11.40
2015,06,15,07,33,11.50
2015,06,15,07,34,11.60
2015,06,15,07,35,11.80
2015,06,15,07,36,11.80
2015,06,15,07,37,12.00
2015,06,15,07,38,12.10
2015,06,15,07,39,12.20
2015,06,15,07,40,12.30
2015,06,15,07,41,12.40
2015,06,15,07,42,12.50
2015,06,15,07,43,12.60
2015,06,15,07,44,12.70
2015,06,15,07,45,12.70
2015,06,15,07,46,12.80
2015,06,15,07,47,12.80
2015,06,15,07,48,12.80
2015,06,15,07,49,12.80
2015,06,15,07,50,12.80
2015,06,15,07,51,12.80
2015,06,15,07,52,12.90
2015,06,15,07,53,13.00
2015,06,15,07,54,13.00
2015,06,15,07,55,13.10
2015,06,15,07,56,13.10
2015,06,15,07,57,13.10
2015,06,15,07,58,13.20
2015,06,15,07,59,13.20
2015,06,15,08,00,13.20
2015,06,15,08,01,13.30
2015,06,15,08,02,13.30
2015,06,15,08,03,13.30
2015,06,15,08,04,13.30
2015,06,15,08,05,13.30
2015,06,15,08,06,13.30
2015,06,15,08,07,13.30
2015,06,15,08,08,13.40
2015,06,15,08,09,13.40
2015,06,15,08,10,13.40
2015,06,15,08,11,13.40
2015,06,15,08,12,13.50
2015,06,15,08,13,13.50
2015,06,15,08,14,13.50
2015,06,15,08,15,13.60
2015,06,15,08,16,13.60
2015,06,15,08,17,13.60
2015,06,15,08,18,13.60
2015,06,15,08,19,13.60
2015,06,15,08,20,13.60
2015,06,15,08,21,13.60
2015,06,15,08,22,13.60
2015,06,15,08,23,13.70
2015,06,15,08,24,13.70
2015,06,15,08,25,13.80
2015,06,15,08,26,13.80
2015,06,15,08,27,13.80
2015,06,15,08,28,13.80
2015,06,15,08,29,13.80
2015,06,15,08,30,13.80
2015,06,15,08,31,13.80
2015,06,15,08,32,13.80
2015,06,15,08,33,13.80
2015,06,15,08,34,13.80
2015,06,15,08,35,13.80
2015,06,15,08,36,13.80
2015,06,15,08,37,13.80
2015,06,15,08,38,13.80
2015,06,15,08,39,13.90
2015,06,15,08,40,14.00
2015,06,15,08,41,14.00
2015,06,15,08,42,14.00
2015,06,15,08,43,14.10
2015,06,15,08,44,14.20
2015,06,15,08,45,14.20
2015,06,15,08,46,14.20
2015,06,15,08,47,14.30
2015,06,15,08,48,14.30
2015,06,15,08,49,14.30
2015,06,15,08,50,14.30
2015,06,15,08,51,14.30
2015,06,15,08,52,14.40
2015,06,15,08,53,14.40
2015,06,15,08,54,14.40
2015,06,15,08,55,14.50
2015,06,15,08,56,14.50
2015,06,15,08,57,14.40
2015,06,15,08,58,14.40
2015,06,15,08,59,14.30
2015,06,15,09,00,14.30
2015,06,15,09,01,14.30
2015,06,15,09,02,14.30
2015,06,15,09,03,14.30
2015,06,15,09,04,14.30
2015,06,15,09,05,14.20
2015,06,15,09,06,14.20
2015,06,15,09,07,14.20
2015,06,15,09,08,14.10
2015,06,15,09,09,14.10
2015,06,15,09,10,14.10
2015,06,15,09,11,14.20
2015,06,15,09,12,14.20
2015,06,15,09,13,14.20
2015,06,15,09,14,14.20
2015,06,15,09,15,14.20
2015,06,15,09,16,14.20
2015,06,15,09,17,14.20
2015,06,15,09,18,14.20
2015,06,15,09,19,14.20
2015,06,15,09,20,14.20
2015,06,15,09,21,14.30
2015,06,15,09,22,14.30
2015,06,15,09,23,14.40
2015,06,15,09,24,14.30
2015,06,15,09,25,14.30
2015,06,15,09,26,14.30
2015,06,15,09,27,14.30
2015,06,15,09,28,14.40
2015,06,15,09,29,14.40
2015,06,15,09,30,14.50
2015,06,15,09,31,14.60
2015,06,15,09,32,14.60
2015,06,15,09,33,14.60
2015,06,15,09,34,14.60
2015,06,15,09,35,14.60
2015,06,15,09,36,14.60
2015,06,15,09,37,14.50
2015,06,15,09,38,14.50
2015,06,15,09,39,14.50
2015,06,15,09,40,14.50
2015,06,15,09,41,14.40
2015,06,15,09,42,14.40
2015,06,15,09,43,14.50
2015,06,15,09,44,14.50
2015,06,15,09,45,14.60
2015,06,15,09,46,14.60
2015,06,15,09,47,14.60
2015,06,15,09,48,14.60
2015,06,15,09,49,14.60
2015,06,15,09,50,14.60
2015,06,15,09,51,14.60
2015,06,15,09,52,14.50
2015,06,15,09,53,14.50
2015,06,15,09,54,14.50
2015,06,15,09,55,14.40
2015,06,15,09,56,14.40
2015,06,15,09,57,14.50
2015,06,15,09,58,14.50
2015,06,15,09,59,14.60
2015,06,15,10,00,14.60
2015,06,15,10,01,14.70
2015,06,15,10,02,14.70
2015,06,15,10,03,14.70
2015,06,15,10,04,14.60
2015,06,15,10,05,14.60
2015,06,15,10,06,14.60
2015,06,15,10,07,14.70
2015,06,15,10,08,14.70
2015,06,15,10,09,14.70
2015,06,15,10,10,14.70
2015,06,15,10,11,14.70
2015,06,15,10,12,14.70
2015,06,15,10,13,14.80
2015,06,15,10,14,14.80
2015,06,15,10,15,14.80
2015,06,15,10,16,14.70
2015,06,15,10,17,14.70
2015,06,15,10,18,14.80
2015,06,15,10,19,14.80
2015,06,15,10,20,14.80
2015,06,15,10,21,14.80
2015,06,15,10,22,14.80
2015,06,15,10,23,14.80
2015,06,15,10,24,14.90
2015,06,15,10,25,14.80
2015,06,15,10,26,14.80
2015,06,15,10,27,14.80
2015,06,15,10,28,14.90
2015,06,15,10,29,14.90
2015,06,15,10,30,15.00
2015,06,15,10,31,15.00
2015,06,15,10,32,15.00
2015,06,15,10,33,15.00
2015,06,15,10,34,15.00
2015,06,15,10,35,15.00
2015,06,15,10,36,15.00
2015,06,15,10,37,15.10
2015,06,15,10,38,15.10
2015,06,15,10,39,15.10
2015,06,15,10,40,15.10
2015,06,15,10,41,15.10
2015,06,15,10,42,15.10
2015,06,15,10,43,15.10
2015,06,15,10,44,15.10
2015,06,15,10,45,15.10
2015,06,15,10,46,15.10
2015,06,15,10,47,15.10
2015,06,15,10,48,15.10
2015,06,15,10,49,15.10
2015,06,15,10,50,15.20
2015,06,15,10,51,15.20
2015,06,15,10,52,15.20
2015,06,15,10,53,15.20
2015,06,15,10,54,15.20
2015,06,15,10,55,15.10
2015,06,15,10,56,15.10
2015,06,15,10,57,15.00
2015,06,15,10,58,15.00
2015,06,15,10,59,15.10
2015,06,15,11,00,15.10
2015,06,15,11,01,15.20
2015,06,15,11,02,15.20
2015,06,15,11,03,15.20
2015,06,15,11,04,15.20
2015,06,15,11,05,15.30
2015,06,15,11,06,15.30
2015,06,15,11,07,15.40
2015,06,15,11,08,15.40
2015,06,15,11,09,15.40
2015,06,15,11,10,15.40
2015,06,15,11,11,15.50
2015,06,15,11,12,15.50
2015,06,15,11,13,15.50
2015,06,15,11,14,15.50
2015,06,15,11,15,15.60
2015,06,15,11,16,15.60
2015,06,15,11,17,15.70
2015,06,15,11,18,15.70
2015,06,15,11,19,15.80
2015,06,15,11,20,15.80
2015,06,15,11,21,15.80
2015,06,15,11,22,15.80
2015,06,15,11,23,15.80
2015,06,15,11,24,15.80
2015,06,15,11,25,15.90
2015,06,15,11,26,15.90
2015,06,15,11,27,15.90
2015,06,15,11,28,15.90
2015,06,15,11,29,15.90
2015,06,15,11,30,15.90
2015,06,15,11,31,15.90
2015,06,15,11,32,15.90
2015,06,15,11,33,15.90
2015,06,15,11,34,15.90
2015,06,15,11,35,15.90
2015,06,15,11,36,15.90
2015,06,15,11,37,16.00
2015,06,15,11,38,16.00
2015,06,15,11,39,16.00
2015,06,15,11,40,16.10
2015,06,15,11,41,16.10
2015,06,15,11,42,16.20
2015,06,15,11,43,16.30
2015,06,15,11,44,16.40
2015,06,15,11,45,16.50
2015,06,15,11,46,16.60
2015,06,15,11,47,16.70
2015,06,15,11,48,16.80
2015,06,15,11,49,16.90
2015,06,15,11,50,17.00
2015,06,15,11,51,17.10
2015,06,15,11,52,17.10
2015,06,15,11,53,17.10
2015,06,15,11,54,17.10
2015,06,15,11,55,17.00
2015,06,15,11,56,17.00
2015,06,15,11,57,17.00
2015,06,15,11,58,17.10
2015,06,15,11,59,17.10
2015,06,15,12,00,17.10
2015,06,15,12,01,17.00
2015,06,15,12,02,17.00
2015,06,15,12,03,17.00
2015,06,15,12,04,16.90
2015,06,15,12,05,16.90
2015,06,15,12,06,16.80
2015,06,15,12,07,16.80
2015,06,15,12,08,16.80
2015,06,15,12,09,16.80
2015,06,15,12,10,16.80
2015,06,15,12,11,16.90
2015,06,15,12,12,16.90
2015,06,15,12,13,17.00
2015,06,15,12,14,17.00
2015,06,15,12,15,17.00
2015,06,15,12,16,17.00
2015,06,15,12,17,17.00
2015,06,15,12,18,17.00
2015,06,15,12,19,17.00
2015,06,15,12,20,17.00
2015,06,15,12,21,16.90
2015,06,15,12,22,17.00
2015,06,15,12,23,17.00
2015,06,15,12,24,17.00
2015,06,15,12,25,17.10
2015,06,15,12,26,17.10
2015,06,15,12,27,17.10
2015,06,15,12,28,17.10
2015,06,15,12,29,17.10
2015,06,15,12,30,17.20
2015,06,15,12,31,17.20
2015,06,15,12,32,17.30
2015,06,15,12,33,17.30
2015,06,15,12,34,17.30
2015,06,15,12,35,17.30
2015,06,15,12,36,17.30
2015,06,15,12,37,17.30
2015,06,15,12,38,17.30
2015,06,15,12,39,17.20
2015,06,15,12,40,17.30
2015,06,15,12,41,17.30
2015,06,15,12,42,17.30
2015,06,15,12,43,17.40
2015,06,15,12,44,17.40
2015,06,15,12,45,17.30
2015,06,15,12,46,17.20
2015,06,15,12,47,17.20
2015,06,15,12,48,17.20
2015,06,15,12,49,17.20
2015,06,15,12,50,17.20
2015,06,15,12,51,17.20
2015,06,15,12,52,17.20
2015,06,15,12,53,17.20
2015,06,15,12,54,17.20
2015,06,15,12,55,17.30
2015,06,15,12,56,17.20
2015,06,15,12,57,17.20
2015,06,15,12,58,17.20
2015,06,15,12,59,17.30
2015,06,15,13,00,17.40
2015,06,15,13,01,17.50
2015,06,15,13,02,17.50
2015,06,15,13,03,17.60
2015,06,15,13,04,17.60
2015,06,15,13,05,17.60
2015,06,15,13,06,17.60
2015,06,15,13,07,17.60
2015,06,15,13,08,17.60
2015,06,15,13,09,17.60
2015,06,15,13,10,17.60
2015,06,15,13,11,17.60
2015,06,15,13,12,17.60
2015,06,15,13,13,17.60
2015,06,15,13,14,17.60
2015,06,15,13,15,17.70
2015,06,15,13,16,17.70
2015,06,15,13,17,17.70
2015,06,15,13,18,17.60
2015,06,15,13,19,17.60
2015,06,15,13,20,17.50
2015,06,15,13,21,17.50
2015,06,15,13,22,17.60
2015,06,15,13,23,17.60
2015,06,15,13,24,17.60
2015,06,15,13,25,17.70
2015,06,15,13,26,17.70
2015,06,15,13,27,17.70
2015,06,15,13,28,17.70
2015,06,15,13,29,17.60
2015,06,15,13,30,17.60
2015,06,15,13,31,17.70
2015,06,15,13,32,17.60
2015,06,15,13,33,17.60
2015,06,15,13,34,17.60
2015,06,15,13,35,17.70
2015,06,15,13,36,17.70
2015,06,15,13,37,17.80
2015,06,15,13,38,17.80
2015,06,15,13,39,17.90
2015,06,15,13,40,17.90
2015,06,15,13,41,18.00
2015,06,15,13,42,18.10
2015,06,15,13,43,18.10
2015,06,15,13,44,18.10
2015,06,15,13,45,18.10
2015,06,15,13,46,18.10
2015,06,15,13,47,18.10
2015,06,15,13,48,18.10
2015,06,15,13,49,18.10
2015,06,15,13,50,18.10
2015,06,15,13,51,18.10
2015,06,15,13,52,18.00
2015,06,15,13,53,18.00
2015,06,15,13,54,18.00
2015,06,15,13,55,18.10
2015,06,15,13,56,18.10
2015,06,15,13,57,18.10
2015,06,15,13,58,18.10
2015,06,15,13,59,18.20
2015,06,15,14,00,18.20
2015,06,15,14,01,18.20
2015,06,15,14,02,18.20
2015,06,15,14,03,18.30
2015,06,15,14,04,18.30
2015,06,15,14,05,18.40
2015,06,15,14,06,18.50
2015,06,15,14,07,18.40
2015,06,15,14,08,18.40
2015,06,15,14,09,18.30
2015,06,15,14,10,18.30
2015,06,15,14,11,18.20
2015,06,15,14,12,18.10
2015,06,15,14,13,18.10
2015,06,15,14,14,18.00
2015,06,15,14,15,18.00
2015,06,15,14,16,18.00
2015,06,15,14,17,18.00
2015,06,15,14,18,18.00
2015,06,15,14,19,18.10
2015,06,15,14,20,18.10
2015,06,15,14,21,18.20
2015,06,15,14,22,18.30
2015,06,15,14,23,18.40
2015,06,15,14,24,18.40
2015,06,15,14,25,18.50
2015,06,15,14,26,18.50
2015,06,15,14,27,18.60
2015,06,15,14,28,18.60
2015,06,15,14,29,18.60
2015,06,15,14,30,18.60
2015,06,15,14,31,18.50
2015,06,15,14,32,18.40
2015,06,15,14,33,18.40
2015,06,15,14,34,18.40
2015,06,15,14,35,18.40
2015,06,15,14,36,18.40
2015,06,15,14,37,18.40
2015,06,15,14,38,18.30
2015,06,15,14,39,18.30
2015,06,15,14,40,18.30
2015,06,15,14,41,18.30
2015,06,15,14,42,18.40
2015,06,15,14,43,18.40
2015,06,15,14,44,18.40
2015,06,15,14,45,18.50
2015,06,15,14,46,18.40
2015,06,15,14,47,18.30
2015,06,15,14,48,18.20
2015,06,15,14,49,18.10
2015,06,15,14,50,18.10
2015,06,15,14,51,18.10
2015,06,15,14,52,18.10
2015,06,15,14,53,18.00
2015,06,15,14,54,18.00
2015,06,15,14,55,17.90
2015,06,15,14,56,17.90
2015,06,15,14,57,17.90
2015,06,15,14,58,17.90
2015,06,15,14,59,18.00
2015,06,15,15,00,18.00
2015,06,15,15,01,18.10
2015,06,15,15,02,18.10
2015,06,15,15,03,18.10
2015,06,15,15,04,18.10
2015,06,15,15,05,18.10
2015,06,15,15,06,18.10
2015,06,15,15,07,18.10
2015,06,15,15,08,18.00
2015,06,15,15,09,18.00
2015,06,15,15,10,18.00
2015,06,15,15,11,18.00
2015,06,15,15,12,18.00
2015,06,15,15,13,18.00
2015,06,15,15,14,17.90
2015,06,15,15,15,17.90
2015,06,15,15,16,17.80
2015,06,15,15,17,17.90
2015,06,15,15,18,17.90
2015,06,15,15,19,17.90
2015,06,15,15,20,18.00
2015,06,15,15,21,18.00
2015,06,15,15,22,18.10
2015,06,15,15,23,18.20
2015,06,15,15,24,18.40
2015,06,15,15,25,18.50
2015,06,15,15,26,18.70
2015,06,15,15,27,18.80
2015,06,15,15,28,19.00
2015,06,15,15,29,19.10
2015,06,15,15,30,19.10
2015,06,15,15,31,19.10
2015,06,15,15,32,19.20
2015,06,15,15,33,19.20
2015,06,15,15,34,19.30
2015,06,15,15,35,19.30
2015,06,15,15,36,19.30
2015,06,15,15,37,19.40
2015,06,15,15,38,19.50
2015,06,15,15,39,19.50
2015,06,15,15,40,19.60
2015,06,15,15,41,19.50
2015,06,15,15,42,19.40
2015,06,15,15,43,19.40
2015,06,15,15,44,19.30
2015,06,15,15,45,19.20
2015,06,15,15,46,19.10
2015,06,15,15,47,19.10
2015,06,15,15,48,19.10
2015,06,15,15,49,19.10
2015,06,15,15,50,19.10
2015,06,15,15,51,19.10
2015,06,15,15,52,19.10
2015,06,15,15,53,19.20
2015,06,15,15,54,19.20
2015,06,15,15,55,19.20
2015,06,15,15,56,19.30
2015,06,15,15,57,19.30
2015,06,15,15,58,19.40
2015,06,15,15,59,19.40
2015,06,15,16,00,19.40
2015,06,15,16,01,19.50
2015,06,15,16,02,19.60
2015,06,15,16,03,19.70
2015,06,15,16,04,19.80
2015,06,15,16,05,19.90
2015,06,15,16,06,20.00
2015,06,15,16,07,20.10
2015,06,15,16,08,20.20
2015,06,15,16,09,20.10
2015,06,15,16,10,20.10
2015,06,15,16,11,20.10
2015,06,15,16,12,20.20
2015,06,15,16,13,20.20
2015,06,15,16,14,20.30
2015,06,15,16,15,20.30
2015,06,15,16,16,20.30
2015,06,15,16,17,20.30
2015,06,15,16,18,20.30
2015,06,15,16,19,20.20
2015,06,15,16,20,20.20
2015,06,15,16,21,20.10
2015,06,15,16,22,20.10
2015,06,15,16,23,20.10
2015,06,15,16,24,20.00
2015,06,15,16,25,20.00
2015,06,15,16,26,20.00
2015,06,15,16,27,20.00
2015,06,15,16,28,20.00
2015,06,15,16,29,20.10
2015,06,15,16,30,20.10
2015,06,15,16,31,20.10
2015,06,15,16,32,20.20
2015,06,15,16,33,20.10
2015,06,15,16,34,20.10
2015,06,15,16,35,20.10
2015,06,15,16,36,20.10
2015,06,15,16,37,20.10
2015,06,15,16,38,20.10
2015,06,15,16,39,20.10
2015,06,15,16,40,20.20
2015,06,15,16,41,20.20
2015,06,15,16,42,20.20
2015,06,15,16,43,20.30
2015,06,15,16,44,20.40
2015,06,15,16,45,20.50
2015,06,15,16,46,20.60
2015,06,15,16,47,20.70
2015,06,15,16,48,20.80
2015,06,15,16,49,20.90
2015,06,15,16,50,21.00
2015,06,15,16,51,21.00
2015,06,15,16,52,21.10
2015,06,15,16,53,21.20
2015,06,15,16,54,21.30
2015,06,15,16,55,21.30
2015,06,15,16,56,21.30
2015,06,15,16,57,21.20
2015,06,15,16,58,21.10
2015,06,15,16,59,21.00
2015,06,15,17,00,21.00
2015,06,15,17,01,21.10
2015,06,15,17,02,21.10
2015,06,15,17,03,21.10
2015,06,15,17,04,21.10
2015,06,15,17,05,21.10
2015,06,15,17,06,21.00
2015,06,15,17,07,20.90
2015,06,15,17,08,20.90
2015,06,15,17,09,20.80
2015,06,15,17,10,20.80
2015,06,15,17,11,20.70
2015,06,15,17,12,20.70
2015,06,15,17,13,20.60
2015,06,15,17,14,20.60
2015,06,15,17,15,20.60
2015,06,15,17,16,20.60
2015,06,15,17,17,20.70
2015,06,15,17,18,20.70
2015,06,15,17,19,20.80
2015,06,15,17,20,20.80
2015,06,15,17,21,20.80
2015,06,15,17,22,20.80
2015,06,15,17,23,20.70
2015,06,15,17,24,20.70
2015,06,15,17,25,20.70
2015,06,15,17,26,20.60
2015,06,15,17,27,20.60
2015,06,15,17,28,20.60
2015,06,15,17,29,20.60
2015,06,15,17,30,20.50
2015,06,15,17,31,20.50
2015,06,15,17,32,20.40
2015,06,15,17,33,20.30
2015,06,15,17,34,20.30
2015,06,15,17,35,20.30
2015,06,15,17,36,20.30
2015,06,15,17,37,20.40
2015,06,15,17,38,20.40
2015,06,15,17,39,20.50
2015,06,15,17,40,20.60
2015,06,15,17,41,20.70
2015,06,15,17,42,20.70
2015,06,15,17,43,20.80
2015,06,15,17,44,20.80
2015,06,15,17,45,20.90
2015,06,15,17,46,21.00
2015,06,15,17,47,21.10
2015,06,15,17,48,21.10
2015,06,15,17,49,21.10
2015,06,15,17,50,21.20
2015,06,15,17,51,21.20
2015,06,15,17,52,21.30
2015,06,15,17,53,21.30
2015,06,15,17,54,21.30
2015,06,15,17,55,21.30
2015,06,15,17,56,21.40
2015,06,15,17,57,21.40
2015,06,15,17,58,21.40
2015,06,15,17,59,21.30
2015,06,15,18,00,21.30
2015,06,15,18,01,21.20
2015,06,15,18,02,21.20
2015,06,15,18,03,21.20
2015,06,15,18,04,21.20
2015,06,15,18,05,21.20
2015,06,15,18,06,21.20
2015,06,15,18,07,21.20
2015,06,15,18,08,21.20
2015,06,15,18,09,21.20
2015,06,15,18,10,21.20
2015,06,15,18,11,21.20
2015,06,15,18,12,21.20
2015,06,15,18,13,21.10
2015,06,15,18,14,21.00
2015,06,15,18,15,20.90
2015,06,15,18,16,20.80
2015,06,15,18,17,20.80
2015,06,15,18,18,20.70
2015,06,15,18,19,20.70
2015,06,15,18,20,20.70
2015,06,15,18,21,20.80
2015,06,15,18,22,20.70